Location: ??????
(42.0089°N, 44.3281°E)
Time: 16:29:17
(UTC+00:00)

Okean 1-7 Rocket - Pass Details

Date: 02 June 2022
Orbit: 616 x 648 km, 82.5° (Epoch: 01 July)

Event Time Altitude Azimuth Distance (km) Brightness Sun altitude
Exits shadow 23:12:00 14° 146° (SSE) 1,733 5.6 -18.9°
Maximum altitude 23:15:08 31° 90° (E) 1,095 5.1 -18.6°
Drops below altitude 10° 23:18:59 10° 29° (NNE) 1,988 7.4 -18.2°
Sets 23:21:24 0° 19° (NNE) 2,897 8.5 -18.0°
